Previsão horária em Jutiapa

Hoje, 14 Junho, Segunda-feira

Tempo Temperatura Precipitação Vento Pressão Humidade
00:00 +19°C° 0.8 mm 0 m/s 672 mmHg 93%
01:00 +19°C° 0.5 mm 0 m/s 672 mmHg 93%
02:00 +19°C° 0.5 mm 0 m/s 672 mmHg 93%
03:00 +19°C° 0.5 mm 0 m/s 672 mmHg 92%
04:00 +19°C° 0.1 mm 0 m/s 672 mmHg 92%
05:00 +19°C° 0.1 mm 0 m/s 672 mmHg 92%
06:00 +19°C° 0.1 mm 0 m/s 672 mmHg 92%
07:00 +20°C° 0.2 mm 0 m/s 673 mmHg 91%
08:00 +20°C° 0.2 mm 0 m/s 673 mmHg 90%
09:00 +21°C° 0.2 mm 0 m/s 674 mmHg 88%
10:00 +22°C° 0.9 mm 0 m/s 674 mmHg 86%
11:00 +24°C° 0.9 mm 1 m/s 673 mmHg 84%
12:00 +25°C° 0.9 mm 1 m/s 673 mmHg 81%
13:00 +25°C° 0.7 mm 1 m/s 673 mmHg 80%
14:00 +25°C° 0.7 mm 1 m/s 672 mmHg 78%
15:00 +25°C° 0.7 mm 1 m/s 672 mmHg 77%
16:00 +24°C° 0.7 mm 1 m/s 672 mmHg 82%
17:00 +23°C° 0.7 mm 1 m/s 672 mmHg 88%
18:00 +22°C° 0.7 mm 1 m/s 672 mmHg 93%
19:00 +22°C° 1.1 mm 1 m/s 672 mmHg 94%
20:00 +21°C° 1.1 mm 1 m/s 672 mmHg 95%
21:00 +21°C° 1.1 mm 1 m/s 673 mmHg 96%
22:00 +21°C° 0.3 mm 1 m/s 673 mmHg 96%
23:00 +20°C° 0.3 mm 1 m/s 672 mmHg 96%

Amanhã, 15 Junho, Terça-feira

Tempo Temperatura Precipitação Vento Pressão Humidade
00:00 +20°C° 0.3 mm 1 m/s 672 mmHg 95%
01:00 +18°C° 0.2 mm 0 m/s 672 mmHg 95%
02:00 +18°C° 0.2 mm 0 m/s 672 mmHg 96%
03:00 +18°C° 0.2 mm 0 m/s 672 mmHg 96%
04:00 +18°C° 0.2 mm 0 m/s 672 mmHg 96%
05:00 +18°C° 0.2 mm 0 m/s 672 mmHg 95%
06:00 +20°C° 0.2 mm 1 m/s 672 mmHg 95%
07:00 +21°C° 0.1 mm 1 m/s 673 mmHg 90%
08:00 +23°C° 0.1 mm 1 m/s 673 mmHg 85%
09:00 +24°C° 0.1 mm 1 m/s 674 mmHg 80%
10:00 +24°C° 0.8 mm 1 m/s 673 mmHg 81%
11:00 +24°C° 0.8 mm 1 m/s 673 mmHg 82%
12:00 +25°C° 0.8 mm 2 m/s 673 mmHg 83%
13:00 +24°C° 1.2 mm 2 m/s 673 mmHg 85%
14:00 +24°C° 1.2 mm 1 m/s 672 mmHg 87%
15:00 +24°C° 1.2 mm 1 m/s 672 mmHg 89%
16:00 +23°C° 1.3 mm 1 m/s 672 mmHg 92%
17:00 +22°C° 1.3 mm 1 m/s 672 mmHg 95%
18:00 +21°C° 1.3 mm 1 m/s 672 mmHg 97%
19:00 +21°C° 1 mm 1 m/s 672 mmHg 97%
20:00 +21°C° 1 mm 1 m/s 672 mmHg 97%
21:00 +19°C° 1 mm 0 m/s 673 mmHg 97%
22:00 +19°C° 0.2 mm 0 m/s 673 mmHg 96%
23:00 +19°C° 0.2 mm 0 m/s 672 mmHg 96%

Depois de amanhã, 16 Junho, Quarta-feira

Tempo Temperatura Precipitação Vento Pressão Humidade
00:00 +18°C° 0.2 mm 0 m/s 672 mmHg 95%
01:00 +18°C° 0.1 mm 0 m/s 672 mmHg 95%
02:00 +18°C° 0.1 mm 0 m/s 671 mmHg 95%
03:00 +18°C° 0.1 mm 0 m/s 671 mmHg 96%
04:00 +20°C° 0.8 mm 1 m/s 671 mmHg 96%
05:00 +20°C° 0.8 mm 1 m/s 671 mmHg 96%
06:00 +20°C° 0.8 mm 1 m/s 671 mmHg 97%
07:00 +20°C° 1.1 mm 1 m/s 671 mmHg 97%
08:00 +20°C° 1.1 mm 1 m/s 672 mmHg 97%
09:00 +19°C° 1.1 mm 0 m/s 672 mmHg 96%
10:00 +19°C° 1.1 mm 0 m/s 672 mmHg 96%
11:00 +19°C° 1.1 mm 0 m/s 672 mmHg 96%
12:00 +19°C° 1.1 mm 0 m/s 672 mmHg 96%
13:00 +19°C° 1 mm 0 m/s 672 mmHg 96%
14:00 +19°C° 1 mm 0 m/s 672 mmHg 96%
15:00 +19°C° 1 mm 0 m/s 671 mmHg 96%
16:00 +18°C° 0.7 mm 0 m/s 671 mmHg 97%
17:00 +18°C° 0.7 mm 0 m/s 672 mmHg 98%
18:00 +18°C° 0.7 mm 0 m/s 672 mmHg 98%
19:00 +18°C° 0.4 mm 0 m/s 672 mmHg 98%
20:00 +18°C° 0.4 mm 0 m/s 672 mmHg 98%
21:00 +18°C° 0.4 mm 0 m/s 672 mmHg 98%
22:00 +18°C° 0.3 mm 0 m/s 672 mmHg 97%
23:00 +18°C° 0.3 mm 0 m/s 672 mmHg 97%

17 Junho, Quinta-feira

Tempo Temperatura Precipitação Vento Pressão Humidade
00:00 +18°C° 0.3 mm 0 m/s 672 mmHg 97%
01:00 +18°C° 0.4 mm 0 m/s 672 mmHg 97%
02:00 +18°C° 0.4 mm 0 m/s 671 mmHg 97%
03:00 +18°C° 0.4 mm 0 m/s 671 mmHg 97%
04:00 +18°C° 0.2 mm 0 m/s 671 mmHg 97%
05:00 +18°C° 0.2 mm 0 m/s 671 mmHg 96%
06:00 +18°C° 0.2 mm 0 m/s 671 mmHg 96%
07:00 +19°C° 0 mm 0 m/s 672 mmHg 93%
08:00 +20°C° 0 mm 0 m/s 672 mmHg 90%
09:00 +20°C° 0 mm 0 m/s 673 mmHg 88%
10:00 +23°C° 0 mm 1 m/s 673 mmHg 85%
11:00 +24°C° 0 mm 1 m/s 673 mmHg 82%
12:00 +24°C° 0 mm 1 m/s 672 mmHg 79%
13:00 +25°C° 0.5 mm 1 m/s 672 mmHg 79%
14:00 +25°C° 0.5 mm 2 m/s 672 mmHg 80%
15:00 +25°C° 0.5 mm 2 m/s 671 mmHg 80%
16:00 +24°C° 0.4 mm 2 m/s 671 mmHg 85%
17:00 +23°C° 0.4 mm 1 m/s 671 mmHg 90%
18:00 +22°C° 0.4 mm 1 m/s 671 mmHg 95%
19:00 +21°C° 0 mm 1 m/s 672 mmHg 96%
20:00 +21°C° 0 mm 1 m/s 672 mmHg 97%
21:00 +20°C° 0 mm 1 m/s 672 mmHg 98%
22:00 +20°C° 0 mm 1 m/s 672 mmHg 97%
23:00 +20°C° 0 mm 1 m/s 672 mmHg 97%

18 Junho, Sexta-feira

Tempo Temperatura Precipitação Vento Pressão Humidade
00:00 +20°C° 0 mm 1 m/s 673 mmHg 97%
01:00 +20°C° 0 mm 1 m/s 672 mmHg 97%
02:00 +19°C° 0 mm 1 m/s 672 mmHg 96%
03:00 +17°C° 0 mm 0 m/s 672 mmHg 96%
04:00 +19°C° 0 mm 1 m/s 672 mmHg 96%
05:00 +19°C° 0 mm 1 m/s 672 mmHg 95%
06:00 +19°C° 0 mm 1 m/s 672 mmHg 95%
07:00 +21°C° 0 mm 1 m/s 672 mmHg 88%
08:00 +23°C° 0 mm 1 m/s 673 mmHg 82%
09:00 +25°C° 0 mm 1 m/s 673 mmHg 76%
10:00 +26°C° 0 mm 1 m/s 673 mmHg 72%
11:00 +27°C° 0 mm 1 m/s 673 mmHg 67%
12:00 +28°C° 0 mm 2 m/s 673 mmHg 63%
13:00 +27°C° 0.6 mm 2 m/s 673 mmHg 70%
14:00 +26°C° 0.6 mm 2 m/s 673 mmHg 77%
15:00 +25°C° 0.6 mm 2 m/s 672 mmHg 84%
16:00 +24°C° 0.6 mm 2 m/s 672 mmHg 88%
17:00 +23°C° 0.6 mm 1 m/s 672 mmHg 91%
18:00 +23°C° 0.6 mm 1 m/s 672 mmHg 95%
19:00 +22°C° 0.1 mm 1 m/s 672 mmHg 96%
20:00 +22°C° 0.1 mm 1 m/s 673 mmHg 96%
21:00 +21°C° 0.1 mm 1 m/s 673 mmHg 97%
22:00 +21°C° 0.1 mm 1 m/s 673 mmHg 96%
23:00 +21°C° 0.1 mm 1 m/s 673 mmHg 96%

19 Junho, Sábado

Tempo Temperatura Precipitação Vento Pressão Humidade
00:00 +20°C° 0.1 mm 1 m/s 673 mmHg 96%
01:00 +20°C° 0 mm 1 m/s 673 mmHg 95%
02:00 +20°C° 0 mm 1 m/s 673 mmHg 94%
03:00 +20°C° 0 mm 1 m/s 672 mmHg 93%
04:00 +20°C° 0 mm 1 m/s 672 mmHg 92%
05:00 +20°C° 0 mm 1 m/s 672 mmHg 92%
06:00 +20°C° 0 mm 1 m/s 673 mmHg 91%
07:00 +21°C° 0 mm 1 m/s 673 mmHg 86%
08:00 +23°C° 0 mm 1 m/s 674 mmHg 80%
09:00 +23°C° 0 mm 0 m/s 675 mmHg 75%
10:00 +26°C° 0 mm 1 m/s 675 mmHg 72%
11:00 +27°C° 0 mm 1 m/s 674 mmHg 69%
12:00 +28°C° 0 mm 1 m/s 674 mmHg 66%
13:00 +27°C° 0.4 mm 1 m/s 674 mmHg 71%
14:00 +26°C° 0.4 mm 1 m/s 673 mmHg 76%
15:00 +25°C° 0.4 mm 2 m/s 673 mmHg 81%
16:00 +25°C° 0.4 mm 1 m/s 673 mmHg 86%
17:00 +24°C° 0.4 mm 1 m/s 673 mmHg 90%
18:00 +23°C° 0.4 mm 1 m/s 673 mmHg 95%
19:00 +22°C° 0.5 mm 1 m/s 673 mmHg 96%
20:00 +22°C° 0.5 mm 1 m/s 673 mmHg 96%
21:00 +21°C° 0.5 mm 1 m/s 674 mmHg 97%
22:00 +21°C° 0.1 mm 1 m/s 674 mmHg 96%
23:00 +21°C° 0.1 mm 1 m/s 674 mmHg 96%
Mostrar mais

Necessitamos do seu Consentimento

A Meteoprog e os seus Fornecedores de Serviços podem armazenar e aceder a dados pessoais como cookies, identificadores do dispositivo ou outras tecnologias semelhantes existentes no seu dispositivo e processar estes dados para personalizar conteúdos e anúncios, assim como funcionalidades nas redes sociais e análise de tráfego.

  • Armazenar e/ou aceder a informações no seu dispositivo

    Os cookies, identificadores do dispositivo ou outras informações podem ser armazenados ou acedidos no seu dispositivo, para os fins acima indicados.

  • Anúncios e conteúdos personalizados, medição de anúncios e conteúdos, dados sobre o público-alvo e desenvolvimento de produtos

    Os anúncios e os conteúdos podem ser personalizados com base num perfil. Podem ser adicionados dados adicionais para uma maior personalização dos anúncios e dos conteúdos. A eficácia dos anúncios e dos conteúdos pode ser medida. Podem ser obtidas informações sobre o público que visualizou os anúncios e os conteúdos. Estes dados podem ser usados para desenvolver ou melhorar sistemas, softwares ou a experiência do utilizador.

Ao clicar em "Eu concordo”, permitirá o uso de cookies, identificadores do dispositivo e web beacons mencionados ou outras tecnologias semelhantes. As configurações do navegador do seu dispositivo podem ser alteradas.

Para certos fins, podem ser invocados interesses legítimos ao invés de consentimento. Pode ler mais informação sobre este assunto na nossa Política de Privacidade e Cookies.